Repton, AL

2:59 AM CST on February 14, 2016 (GMT -0600)
Middleton

Weather History for KGZH - July, 2013

Change the Weather History Date:

Monday, July 15, 2013

  Actual Average (KPRN) Record (KPRN)
Temperature  
Mean Temperature 80 °F -  
Max Temperature 89 °F 91 °F 102 °F (1980)
Min Temperature 73 °F 69 °F 56 °F (1967)
Cooling Degree Days 16    
Growing Degree Days 30 (Base 50)    
Moisture  
Dew Point 72 °F    
Average Humidity 77    
Maximum Humidity 94    
Minimum Humidity 55    
Precipitation  
Precipitation 0.01 in - - ()
Sea Level Pressure  
Sea Level Pressure 30.14 in    
Wind  
Wind Speed 7 mph (East)    
Max Wind Speed 13 mph    
Max Gust Speed 18 mph    
Visibility 10 miles    
Events      
Averages and records for this station are not official NWS values.
T = Trace of Precipitation, MM = Missing Value Source: NWS Daily Summary

Daily Weather History Graph

Daily Weather History Graph

Search for Another Location

Airport or City:

Trip Planner

Search our weather history database for the weather conditions in past years. The results will help you decide how hot, cold, wet, or windy it might be!

Date:

Astronomy

Jul. 15, 2013 Rise Set
Actual Time 5:54 AM CDT 7:53 PM CDT
Civil Twilight 5:26 AM CDT 8:21 PM CDT
Nautical Twilight 4:53 AM CDT 8:54 PM CDT
Astronomical Twilight 4:18 AM CDT 9:29 PM CDT
Moon 12:42 PM CDT (7/15) No Moon Set
Length of Visible Light 14h 54m
Length of Day
13h 59m
Waxing Crescent, 45% of the Moon is Illuminated
Jul 15
Waxing Crescent
Jul 15
First Quarter
Jul 22
Full
Jul 29
Last Quarter
Aug 6
New

Hourly Weather History & Observations

Time (CDT) Temp. Heat Index Dew Point Humidity Pressure Visibility Wind Dir Wind Speed Gust Speed Precip Events Conditions
12:53 AM 75.0 °F - 73.0 °F 94% 30.07 in 10.0 mi ESE 5.8 mph - N/A   Scattered Clouds
1:53 AM 75.0 °F - 72.0 °F 90% 30.07 in 10.0 mi ESE 4.6 mph - 0.01 in   Mostly Cloudy
2:21 AM 75.2 °F - 71.6 °F 89% 30.09 in 10.0 mi ESE 4.6 mph - N/A   Mostly Cloudy
2:53 AM 75.9 °F - 73.0 °F 91% 30.08 in 10.0 mi ESE 5.8 mph - N/A   Overcast
3:53 AM 75.9 °F - 73.0 °F 91% 30.09 in 10.0 mi ESE 5.8 mph - N/A   Overcast
4:53 AM 75.9 °F - 73.0 °F 91% 30.11 in 10.0 mi ESE 8.1 mph - N/A   Overcast
5:53 AM 75.9 °F - 73.0 °F 91% 30.13 in 10.0 mi East 6.9 mph - N/A   Overcast
6:53 AM 75.9 °F - 73.0 °F 91% 30.14 in 10.0 mi ESE 8.1 mph - N/A   Overcast
7:53 AM 75.9 °F - 72.0 °F 87% 30.16 in 10.0 mi ESE 9.2 mph - N/A   Overcast
8:00 AM 77.0 °F - 71.6 °F 83% 30.17 in 10.0 mi ESE 10.4 mph - N/A   Overcast
8:53 AM 77.0 °F - 72.0 °F 84% 30.17 in 10.0 mi ESE 10.4 mph - N/A   Overcast
9:08 AM 78.8 °F - 73.4 °F 83% 30.18 in 10.0 mi East 5.8 mph - N/A   Overcast
9:53 AM 79.0 °F - 72.0 °F 79% 30.19 in 10.0 mi ESE 9.2 mph - N/A   Overcast
10:09 AM 80.6 °F 84.6 °F 71.6 °F 74% 30.19 in 10.0 mi East 6.9 mph - N/A   Mostly Cloudy
10:53 AM 82.9 °F 88.0 °F 72.0 °F 69% 30.19 in 10.0 mi ESE 10.4 mph - N/A   Overcast
11:14 AM 84.2 °F 90.9 °F 73.4 °F 70% 30.20 in 10.0 mi ESE 10.4 mph - N/A   Scattered Clouds
11:53 AM 84.0 °F 89.6 °F 72.0 °F 67% 30.18 in 10.0 mi East 10.4 mph - N/A   Mostly Cloudy
12:53 PM 84.9 °F 90.7 °F 72.0 °F 65% 30.17 in 10.0 mi East 12.7 mph - N/A   Scattered Clouds
1:53 PM 87.1 °F 93.6 °F 72.0 °F 61% 30.14 in 10.0 mi East 10.4 mph - N/A   Scattered Clouds
2:53 PM 86.0 °F 90.7 °F 70.0 °F 59% 30.12 in 10.0 mi East 11.5 mph - N/A   Scattered Clouds
3:53 PM 88.0 °F 92.9 °F 70.0 °F 55% 30.12 in 10.0 mi ESE 9.2 mph 18.4 mph N/A   Scattered Clouds
4:53 PM 87.1 °F 91.3 °F 69.1 °F 55% 30.11 in 10.0 mi ESE 9.2 mph - N/A   Scattered Clouds
5:53 PM 88.0 °F 92.9 °F 70.0 °F 55% 30.10 in 10.0 mi ESE 8.1 mph - N/A   Clear
6:53 PM 86.0 °F 91.5 °F 71.1 °F 61% 30.13 in 10.0 mi ENE 4.6 mph - N/A   Clear
7:53 PM 81.0 °F 85.2 °F 72.0 °F 74% 30.17 in 10.0 mi ENE 9.2 mph - N/A   Mostly Cloudy
8:53 PM 75.0 °F - 69.1 °F 82% 30.14 in 10.0 mi East 5.8 mph - N/A   Clear
9:53 PM 73.9 °F - 69.1 °F 85% 30.16 in 10.0 mi Calm Calm - N/A   Partly Cloudy
10:53 PM 73.9 °F - 70.0 °F 87% 30.18 in 10.0 mi Calm Calm - N/A   Clear
11:53 PM 75.0 °F - 70.0 °F 84% 30.18 in 10.0 mi East 5.8 mph - N/A   Clear